Weather Service Report


526 
ASUS41 KRLX 160910
RWRRLX
West Virginia Regional Weather Roundup
National Weather Service Charleston WV
500 AM EDT TUE SEP 16 2014

Note: "fair" indicates few or no clouds below 12,000 feet with no
significant weather and/or obstructions to visibility.

WVZ003-161000-
Northern Panhandle of West Virginia
  
CITY           SKY/WX    TMP DP  RH WIND       PRES   REMARKS
WHEELING       CLOUDY    56  54  93 NW5       30.07S                  
$$

WVZ009-161000-
Northwest West Virginia
  
CITY           SKY/WX    TMP DP  RH WIND       PRES   REMARKS
PARKERSBURG    CLOUDY    58  55  90 CALM      30.11S                  
$$

WVZ006-161000-
Western West Virginia
  
CITY           SKY/WX    TMP DP  RH WIND       PRES   REMARKS
HUNTINGTON     CLOUDY    60  58  92 NE5       30.08F                  
$$

WVZ015-161000-
West Central West Virginia
  
CITY           SKY/WX    TMP DP  RH WIND       PRES   REMARKS
CHARLESTON     NOT AVBL                                               
$$

WVZ031-161000-
North Central West Virginia
  
CITY           SKY/WX    TMP DP  RH WIND       PRES   REMARKS
CLARKSBURG     CLOUDY    58  54  86 SW5       30.08S                  
MORGANTOWN     LGT RAIN  59  54  83 S3        30.08S                  
$$

WVZ035-042-045-161000-
South Central West Virginia
  
CITY           SKY/WX    TMP DP  RH WIND       PRES   REMARKS
BECKLEY        CLOUDY    59  55  87 CALM      30.13S                  
BLUEFIELD      CLOUDY    62  59  90 VRB3      30.15R                  
LEWISBURG      CLOUDY    63  55  76 W3        30.11R                  
$$

WVZ047-161000-
Northern Mountains of West Virginia
  
CITY           SKY/WX    TMP DP  RH WIND       PRES   REMARKS
ELKINS         LGT RAIN  60  53  77 W12       30.11R                  
$$

WVZ052-161000-
Eastern Panhandle of West Virginia
  
CITY           SKY/WX    TMP DP  RH WIND       PRES   REMARKS
MARTINSBURG    PTCLDY    56  53  90 VRB3      30.02S                  
PETERSBURG     LGT RAIN  59  56  92 NE3       30.03S                  
$$

Return to Home page


Western Regional Climate Center, wrcc@dri.edu